Wind_Speed
67 69 69 71 71 74 78 81 84 89 94 100 101 105 108 111 107 107 108 110 113 127 127 128 131 122 106 106 108 109 100 97 91 92 77 85 84 77 76 78 71 70 72 76
47 62 67 70 72 72 74 73 76 80 86 87 90 93 104 109 112 110 111 111 109 115 128 131 130 130 127 110 99 107 106 105 98 100 96 86 80 81 82 79 78 76 79 79
26 37 50 63 70 72 73 73 72 72 75 75 81 86 90 99 106 109 113 114 113 113 118 125 128 126 128 124 101 93 100 100 102 100 99 87 84 81 86 81 79 81 68 67
35 29 32 43 56 67 72 75 73 69 69 69 75 74 79 85 90 101 109 113 115 118 116 114 123 128 129 128 125 108 98 95 99 100 98 93 85 79 76 76 79 66 59 59
41 40 38 33 39 48 60 71 75 73 71 69 69 72 69 79 81 87 93 100 109 117 118 118 116 119 126 131 130 128 124 98 96 95 101 98 96 85 85 80 84 81 77 69
47 47 45 43 35 39 44 55 64 72 76 72 66 73 65 74 79 80 79 85 93 106 116 117 118 118 119 124 129 130 131 124 107 100 88 96 100 99 98 88 86 84 79 70
51 53 51 51 43 37 40 42 50 61 70 72 74 70 67 77 71 73 76 76 79 90 103 114 117 121 118 118 119 121 125 128 123 118 106 94 101 103 102 93 83 81 72 67
55 60 59 58 53 42 38 40 41 50 60 67 80 75 72 75 72 73 72 70 72 79 89 103 115 118 121 120 120 118 119 121 129 130 125 111 105 95 93 98 89 82 76 74
59 61 66 64 64 48 41 39 40 42 50 60 67 72 75 72 78 72 70 71 69 71 79 89 104 116 121 123 122 122 120 118 120 125 128 126 110 105 89 90 92 90 83 83
63 60 69 72 69 62 42 38 38 41 44 50 56 68 73 82 81 74 72 69 71 70 71 80 92 107 119 126 126 126 124 121 118 118 120 124 122 115 112 105 98 90 87 90
66 65 70 74 77 65 47 36 37 37 41 47 50 58 70 79 83 73 75 74 72 72 73 74 82 93 105 118 127 128 126 124 122 121 119 117 119 121 117 118 109 101 94 92
70 66 71 77 78 64 46 39 37 36 38 43 48 47 62 69 76 71 81 78 76 75 75 77 78 83 94 105 117 127 128 126 124 124 123 120 118 119 119 121 117 111 108 108
72 73 77 78 76 62 44 38 38 37 38 36 46 42 58 60 69 68 68 73 77 78 78 80 81 83 85 93 103 110 120 128 129 126 125 122 118 115 112 113 113 110 107 108
77 78 82 79 66 55 44 37 36 36 36 39 32 47 56 62 58 54 55 61 66 73 77 82 83 85 86 86 89 97 105 112 121 128 129 127 123 118 112 110 108 107 102 99
74 79 84 73 56 46 38 33 36 34 35 31 39 43 52 58 47 43 47 53 55 59 62 67 74 81 81 81 82 83 87 96 104 111 120 127 125 123 121 115 108 101 97 93
80 82 78 64 49 38 34 38 36 34 30 28 33 37 44 44 41 44 48 49 50 49 51 54 58 57 61 64 70 78 80 81 85 93 103 109 117 124 123 117 108 94 82 80
82 84 69 54 43 38 36 33 30 29 27 28 30 36 32 35 39 42 43 43 41 40 42 43 43 42 43 45 47 52 59 66 72 76 77 85 97 105 108 107 106 89 88 77
82 74 56 44 37 31 26 23 23 23 25 23 24 28 29 31 32 32 32 24 24 28 30 30 30 29 32 32 31 33 37 42 49 55 63 70 76 80 88 95 92 95 90 81
79 63 47 37 32 29 22 16 16 18 22 20 23 26 24 23 24 28 23 23 22 21 22 19 20 19 13 13 12 12 15 20 27 35 44 52 60 69 72 77 84 95 92 90
72 55 43 34 29 25 22 20 17 18 17 17 17 19 20 20 20 26 20 21 20 20 20 18 16 24 32 28 25 21 16 10 12 22 33 41 49 62 67 68 78 93 99 101
64 50 39 32 26 22 19 17 17 16 17 14 17 19 18 19 20 23 15 19 21 20 20 23 46 55 47 44 41 35 23 18 8 7 20 32 43 55 63 64 69 88 85 85
60 45 35 31 27 21 16 13 14 14 16 18 18 18 18 19 19 15 18 21 21 21 27 49 63 63 62 55 48 48 37 20 18 2 15 23 35 45 54 56 59 63 72 75
53 38 31 29 25 17 12 11 14 17 18 19 20 16 15 17 16 14 22 23 24 28 50 74 69 64 63 57 46 41 32 19 20 20 19 23 30 38 46 45 45 51 57 64
45 31 27 26 23 17 14 15 16 16 18 20 19 18 13 17 11 16 22 25 27 50 70 74 70 66 66 52 44 45 34 34 22 24 23 23 30 39 42 40 42 47 52 61
37 27 25 23 22 23 17 19 20 21 20 20 20 16 17 17 11 20 23 28 36 72 73 77 66 66 61 50 53 50 47 40 26 22 18 19 22 28 35 40 42 46 54 57
30 26 24 20 20 20 22 21 17 18 18 16 15 14 18 11 16 20 24 30 44 79 76 75 67 67 58 55 56 49 49 51 43 38 19 18 21 30 37 39 38 36 39 38
Wind_Direction
259 257 256 256 256 255 253 252 250 251 248 247 243 245 243 245 242 242 240 239 236 236 236 235 233 233 231 238 239 243 247 247 246 244 251 254 260 258 260 263 266 268 269 271
264 260 258 257 256 254 255 254 253 250 251 248 246 244 246 244 243 241 241 240 238 236 236 238 239 235 237 235 237 241 242 244 246 247 246 253 252 255 259 260 263 266 269 272
306 277 263 259 256 255 255 254 254 253 252 251 247 245 245 246 244 243 240 239 238 238 237 236 239 240 235 233 231 233 238 238 244 245 247 250 251 256 257 259 261 265 268 272
353 331 293 271 259 255 254 253 252 253 252 249 249 246 245 245 245 243 240 239 238 237 238 237 237 238 237 236 234 230 236 236 238 242 248 250 246 250 253 252 257 257 263 271
354 352 343 313 282 267 257 253 253 251 251 249 248 247 245 246 243 244 242 240 238 236 236 236 236 237 239 236 237 236 242 236 236 241 244 247 248 244 246 249 250 257 260 269
348 348 348 340 316 287 272 261 255 251 250 249 249 249 243 246 244 243 244 241 239 236 235 235 235 236 238 238 238 239 240 240 235 237 239 240 245 240 245 248 250 255 257 259
345 343 347 342 334 309 284 274 258 253 248 247 247 247 245 247 246 245 242 243 240 238 236 234 233 235 236 238 238 239 238 240 241 241 238 237 239 244 244 242 240 249 249 249
343 341 341 341 336 327 297 282 273 257 250 246 242 243 246 248 246 245 245 244 243 239 236 234 233 233 235 236 238 238 237 237 238 241 240 240 239 242 243 243 245 245 243 243
339 341 337 340 334 327 314 287 275 268 253 249 244 244 243 246 248 244 244 244 243 241 239 236 233 232 233 235 237 238 239 238 238 238 239 242 240 241 239 240 240 242 241 244
336 341 334 334 332 326 316 293 275 273 262 253 246 246 243 243 245 246 245 243 244 244 240 238 236 233 232 234 235 236 238 240 238 237 238 239 242 239 237 242 242 244 243 242
333 336 333 331 327 324 313 296 276 269 266 255 247 245 244 247 245 242 246 246 243 243 244 241 238 238 235 234 235 236 236 238 241 241 240 238 240 242 243 242 242 242 243 244
331 334 332 328 325 319 311 296 275 270 265 257 250 247 250 247 251 246 245 245 246 245 244 245 244 240 238 238 236 236 237 237 239 241 241 241 240 241 243 245 247 245 242 244
331 332 330 328 322 312 308 293 278 269 269 266 251 242 248 250 248 248 248 248 248 248 247 245 246 246 243 239 240 239 238 238 238 239 242 243 243 243 243 245 247 247 247 249
331 331 327 325 317 309 305 293 278 271 271 262 256 238 243 248 251 253 251 252 251 250 248 248 248 248 247 246 243 241 241 241 240 240 240 242 244 243 241 242 246 246 247 249
330 329 324 320 315 309 303 288 275 274 272 270 253 244 243 250 255 256 254 250 250 252 252 251 249 249 251 251 250 249 246 244 243 242 240 242 242 242 245 245 246 247 247 247
329 327 323 317 316 308 298 282 284 276 270 263 250 247 248 252 254 254 257 260 259 258 257 254 253 253 251 250 249 250 250 247 244 242 241 242 241 242 244 244 245 242 240 244
327 325 322 316 314 307 294 295 279 271 263 254 247 244 247 250 254 259 261 261 256 255 251 251 253 251 248 251 250 249 248 249 248 247 243 240 240 239 241 242 242 235 231 229
326 325 323 319 315 305 300 294 278 266 258 249 244 251 254 251 252 255 254 256 259 246 242 243 243 243 242 244 244 244 243 243 245 243 241 237 232 234 234 233 232 224 226 224
328 327 325 322 318 308 291 269 250 244 247 244 245 251 257 261 265 267 266 274 252 239 228 226 222 222 226 226 222 219 226 234 238 240 239 235 226 220 224 225 224 217 219 219
331 329 328 327 324 310 297 294 286 265 262 253 252 256 260 263 266 263 269 247 230 222 207 193 176 141 137 134 134 131 123 149 196 223 227 225 219 216 213 214 215 215 218 221
331 329 328 327 323 310 302 290 281 271 261 256 263 259 262 265 260 264 237 228 212 194 183 162 140 127 123 115 96 91 89 72 51 243 222 214 209 203 205 202 206 213 216 219
332 328 327 326 326 312 295 282 276 267 261 263 264 257 248 256 260 243 223 211 192 177 159 149 133 119 111 106 106 92 72 71 47 196 187 185 195 188 191 193 197 201 208 212
331 327 326 325 322 318 312 297 283 269 270 270 271 267 261 263 249 221 211 199 177 157 156 137 131 128 119 117 112 103 91 74 83 78 125 150 166 174 171 172 175 187 198 205
329 325 326 323 317 310 309 301 289 281 281 278 273 269 252 247 233 204 198 181 169 150 152 141 139 135 130 132 121 120 124 109 92 86 88 118 145 146 144 154 167 180 195 204
324 323 323 313 313 315 314 303 296 292 284 281 278 254 242 245 201 202 188 176 158 158 152 147 146 141 145 138 138 134 129 117 102 122 104 92 108 136 152 163 170 185 193 197
322 325 318 320 319 320 318 312 299 286 274 274 268 265 243 247 193 185 175 171 157 160 158 153 152 153 157 145 138 136 140 131 132 125 131 98 119 140 150 153 161 167 165 163
Height
10589 10588 10587 10586 10589 10589 10588 10591 10596 10595 10600 10607 10619 10622 10626 10627 10644 10652 10657 10667 10675 10684 10691 10698 10703 10726 10728 10746 10758 10772 10783 10790 10797 10797 10805 10806 10815 10818 10824 10829 10831 10836 10836 10842
10574 10571 10572 10570 10569 10570 10568 10571 10574 10575 10574 10586 10591 10600 10595 10604 10611 10624 10632 10640 10653 10658 10666 10677 10681 10702 10716 10732 10739 10750 10765 10770 10777 10782 10790 10798 10805 10808 10811 10816 10820 10824 10825 10829
10562 10558 10555 10552 10552 10552 10551 10553 10553 10556 10557 10566 10565 10572 10572 10571 10585 10596 10603 10612 10625 10634 10637 10654 10668 10680 10693 10708 10727 10731 10736 10755 10759 10767 10774 10784 10790 10795 10800 10804 10806 10812 10815 10817
10555 10548 10541 10537 10533 10532 10534 10532 10534 10539 10539 10544 10542 10556 10554 10550 10555 10560 10571 10584 10600 10606 10619 10632 10643 10656 10672 10686 10698 10712 10722 10729 10743 10751 10757 10768 10775 10782 10783 10790 10792 10799 10804 10807
10549 10541 10532 10526 10520 10518 10515 10513 10514 10519 10519 10523 10527 10528 10538 10529 10533 10534 10548 10559 10572 10580 10595 10607 10621 10637 10644 10660 10674 10686 10698 10710 10718 10733 10743 10752 10757 10765 10769 10777 10780 10790 10794 10796
10540 10532 10526 10517 10509 10502 10498 10495 10495 10497 10499 10503 10511 10505 10521 10507 10509 10518 10532 10534 10547 10557 10568 10583 10597 10608 10620 10634 10651 10663 10672 10688 10698 10708 10718 10733 10742 10748 10755 10762 10767 10776 10780 10785
10532 10522 10516 10506 10499 10491 10484 10479 10479 10477 10479 10489 10488 10490 10498 10487 10500 10501 10509 10519 10528 10536 10545 10558 10571 10580 10598 10610 10622 10636 10649 10662 10674 10687 10699 10706 10722 10730 10737 10745 10755 10763 10767 10772
10521 10507 10500 10495 10489 10480 10471 10466 10462 10460 10461 10466 10464 10474 10475 10475 10483 10488 10496 10504 10509 10516 10522 10533 10546 10557 10568 10583 10593 10606 10619 10634 10646 10658 10672 10686 10698 10708 10718 10728 10738 10747 10753 10758
10510 10500 10486 10480 10469 10467 10461 10453 10447 10446 10444 10443 10454 10458 10460 10465 10458 10473 10481 10487 10491 10496 10502 10510 10520 10533 10545 10555 10566 10576 10589 10605 10620 10635 10649 10661 10677 10689 10698 10707 10720 10730 10736 10744
10497 10492 10474 10464 10459 10451 10447 10440 10436 10431 10430 10430 10435 10437 10442 10437 10440 10456 10463 10470 10474 10478 10483 10488 10497 10504 10517 10527 10539 10551 10564 10576 10590 10606 10622 10639 10654 10668 10681 10688 10702 10714 10719 10724
10487 10479 10468 10455 10441 10436 10429 10427 10422 10419 10416 10414 10419 10421 10418 10421 10427 10444 10444 10450 10456 10461 10466 10471 10474 10483 10493 10504 10515 10527 10542 10556 10566 10580 10596 10613 10628 10643 10657 10668 10682 10695 10702 10711
10475 10471 10458 10444 10428 10418 10415 10409 10407 10406 10403 10403 10402 10412 10403 10406 10407 10424 10424 10431 10437 10444 10448 10451 10456 10463 10470 10478 10489 10503 10518 10531 10544 10553 10569 10586 10602 10618 10634 10649 10658 10672 10684 10691
10464 10452 10439 10429 10415 10402 10399 10395 10392 10391 10390 10393 10389 10401 10387 10390 10388 10397 10407 10415 10420 10424 10429 10434 10438 10442 10449 10459 10467 10478 10492 10504 10518 10531 10543 10558 10576 10592 10611 10626 10639 10651 10662 10672
10446 10436 10423 10414 10402 10387 10383 10380 10378 10377 10376 10374 10383 10376 10373 10370 10376 10387 10394 10397 10401 10403 10410 10413 10417 10422 10429 10438 10448 10457 10468 10478 10493 10508 10521 10535 10551 10568 10587 10602 10618 10633 10644 10654
10442 10426 10407 10395 10386 10377 10370 10366 10363 10365 10364 10365 10362 10364 10363 10362 10373 10378 10379 10380 10384 10387 10390 10394 10396 10400 10410 10420 10429 10438 10447 10455 10467 10482 10497 10510 10528 10542 10558 10578 10596 10613 10625 10639
10423 10412 10394 10377 10372 10365 10360 10352 10353 10352 10351 10351 10351 10354 10350 10356 10362 10364 10365 10368 10370 10372 10374 10376 10381 10386 10391 10399 10407 10412 10420 10429 10438 10451 10465 10482 10501 10516 10534 10555 10575 10592 10606 10621
10411 10394 10379 10366 10358 10352 10346 10344 10342 10341 10340 10340 10341 10339 10345 10346 10348 10352 10353 10351 10354 10357 10359 10363 10368 10373 10377 10384 10390 10395 10400 10407 10416 10426 10440 10453 10468 10487 10509 10530 10554 10578 10591 10604
10400 10382 10367 10357 10350 10343 10338 10334 10333 10332 10330 10332 10333 10333 10335 10338 10340 10340 10339 10341 10342 10344 10348 10353 10359 10364 10367 10372 10378 10383 10389 10394 10399 10405 10413 10425 10442 10460 10479 10501 10529 10553 10572 10588
10387 10370 10359 10350 10342 10336 10330 10326 10323 10322 10323 10325 10325 10324 10327 10328 10330 10329 10329 10333 10334 10337 10341 10348 10353 10358 10365 10368 10373 10379 10383 10385 10388 10393 10398 10409 10422 10439 10455 10480 10507 10531 10551 10570
10375 10360 10351 10344 10337 10331 10326 10323 10320 10318 10320 10320 10321 10319 10320 10321 10322 10321 10324 10326 10328 10332 10338 10345 10353 10359 10361 10368 10374 10378 10380 10381 10381 10384 10387 10394 10405 10422 10438 10458 10484 10509 10533 10553
10366 10352 10344 10337 10333 10328 10323 10319 10316 10314 10314 10315 10314 10313 10315 10315 10317 10317 10320 10321 10324 10332 10339 10348 10352 10356 10360 10366 10371 10379 10382 10384 10383 10380 10380 10387 10397 10409 10427 10444 10467 10492 10516 10539
10357 10347 10338 10331 10327 10323 10319 10314 10311 10309 10307 10306 10307 10306 10307 10309 10311 10315 10316 10318 10323 10333 10343 10346 10349 10354 10362 10368 10375 10376 10383 10388 10386 10382 10382 10387 10400 10408 10424 10442 10461 10484 10508 10527
10351 10341 10334 10327 10323 10319 10315 10311 10308 10306 10304 10303 10302 10302 10304 10306 10307 10310 10311 10316 10325 10336 10346 10347 10348 10357 10360 10369 10377 10381 10384 10391 10396 10391 10391 10395 10404 10417 10426 10445 10462 10482 10502 10520
10344 10336 10330 10323 10319 10316 10312 10309 10306 10303 10300 10298 10298 10297 10298 10300 10303 10305 10308 10316 10326 10336 10344 10345 10351 10356 10364 10373 10378 10382 10386 10397 10405 10401 10408 10413 10418 10425 10435 10454 10470 10486 10500 10513
10337 10331 10326 10321 10316 10312 10311 10306 10302 10298 10295 10293 10292 10292 10294 10295 10299 10301 10307 10318 10329 10338 10342 10347 10352 10360 10368 10373 10380 10383 10390 10400 10407 10414 10419 10423 10428 10435 10448 10464 10476 10484 10496 10507
10332 10326 10321 10319 10315 10309 10303 10298 10294 10291 10288 10288 10287 10287 10289 10293 10296 10299 10308 10318 10327 10341 10347 10348 10353 10362 10368 10379 10387 10391 10396 10402 10415 10418 10430 10434 10440 10450 10460 10471 10482 10494 10501 10509